Wetterdaten: Dienstag, 27.10.2015
Datum Zeit Temp. A. Mod.Schuppen Feuchte A. Luftdruck Regen Wind Richtung Richtung Sonnenschein Helligkeit Solar
27.10.2015 00:00 9,4 C 5,9 C 81 % 1016,0 hPa 0,0 l/m 0,6 km/h (0 Bft) O 85 0 min 0 lux 0 W/m
27.10.2015 00:05 9,3 C 5,8 C 81 % 1016,0 hPa 0,0 l/m 3,2 km/h (1 Bft) O 85 0 min 0 lux 0 W/m
27.10.2015 00:10 9,2 C 5,8 C 81 % 1016,0 hPa 0,0 l/m 0,3 km/h (0 Bft) O 85 0 min 0 lux 0 W/m
27.10.2015 00:15 9,2 C 5,7 C 81 % 1016,0 hPa 0,0 l/m 0,2 km/h (0 Bft) O 85 0 min 0 lux 0 W/m
27.10.2015 00:20 9,2 C 5,7 C 81 % 1016,0 hPa 0,0 l/m 0,1 km/h (0 Bft) O 85 0 min 0 lux 0 W/m
27.10.2015 00:25 9,2 C 5,6 C 81 % 1016,0 hPa 0,0 l/m 0,4 km/h (0 Bft) O 85 0 min 0 lux 0 W/m
27.10.2015 00:30 8,9 C 5,6 C 81 % 1016,0 hPa 0,0 l/m 0,0 km/h (0 Bft) O 85 0 min 0 lux 0 W/m
27.10.2015 00:35 8,7 C 5,3 C 81 % 1016,0 hPa 0,0 l/m 0,3 km/h (0 Bft) O 85 0 min 0 lux 0 W/m
27.10.2015 00:40 8,7 C 5,1 C 81 % 1016,0 hPa 0,0 l/m 0,0 km/h (0 Bft) O 85 0 min 0 lux 0 W/m
27.10.2015 00:44 8,2 C 5,0 C 81 % 1016,0 hPa 0,0 l/m 0,0 km/h (0 Bft) O 85 0 min 0 lux 0 W/m
27.10.2015 00:50 8,0 C 5,0 C 81 % 1016,0 hPa 0,0 l/m 0,0 km/h (0 Bft) O 85 0 min 0 lux 0 W/m
27.10.2015 00:55 8,0 C 5,0 C 81 % 1016,0 hPa 0,0 l/m 0,1 km/h (0 Bft) O 85 0 min 0 lux 0 W/m
27.10.2015 01:00 8,1 C 5,0 C 82 % 1016,0 hPa 0,0 l/m 0,1 km/h (0 Bft) O 85 0 min 0 lux 0 W/m
27.10.2015 01:05 8,2 C 5,1 C 82 % 1016,0 hPa 0,0 l/m 1,2 km/h (1 Bft) O 85 0 min 0 lux 0 W/m
27.10.2015 01:09 8,2 C 5,1 C 82 % 1016,0 hPa 0,0 l/m 0,7 km/h (0 Bft) O 85 0 min 0 lux 0 W/m
27.10.2015 01:15 8,2 C 5,0 C 82 % 1016,0 hPa 0,0 l/m 0,1 km/h (0 Bft) O 85 0 min 0 lux 0 W/m
27.10.2015 01:20 8,2 C 5,0 C 82 % 1016,0 hPa 0,0 l/m 1,0 km/h (0 Bft) O22.5 100 0 min 0 lux 0 W/m
27.10.2015 01:25 8,3 C 5,1 C 83 % 1016,0 hPa 0,0 l/m 0,7 km/h (0 Bft) O-SO 120 0 min 0 lux 0 W/m
27.10.2015 01:30 8,4 C 5,4 C 83 % 1016,0 hPa 0,0 l/m 5,4 km/h (2 Bft) O-SO 120 0 min 0 lux 0 W/m
27.10.2015 01:35 8,7 C 5,5 C 83 % 1016,0 hPa 0,0 l/m 1,0 km/h (0 Bft) O-SO 120 0 min 0 lux 0 W/m
27.10.2015 01:40 8,9 C 5,7 C 83 % 1016,0 hPa 0,0 l/m 1,6 km/h (1 Bft) O-SO 120 0 min 0 lux 0 W/m
27.10.2015 01:44 9,0 C 5,7 C 83 % 1016,0 hPa 0,0 l/m 5,5 km/h (2 Bft) O-SO 120 0 min 0 lux 0 W/m
27.10.2015 01:50 9,1 C 5,8 C 83 % 1016,0 hPa 0,0 l/m 5,6 km/h (2 Bft) O-SO 120 0 min 0 lux 0 W/m
27.10.2015 01:55 9,2 C 5,9 C 83 % 1016,0 hPa 0,0 l/m 1,3 km/h (1 Bft) SO22.5 125 0 min 0 lux 0 W/m
27.10.2015 02:00 9,1 C 5,9 C 83 % 1016,0 hPa 0,0 l/m 1,2 km/h (1 Bft) O-SO 115 0 min 0 lux 0 W/m
27.10.2015 02:05 9,1 C 5,8 C 83 % 1016,0 hPa 0,0 l/m 1,3 km/h (1 Bft) SO 125 0 min 0 lux 0 W/m
27.10.2015 02:09 9,1 C 5,9 C 83 % 1016,0 hPa 0,0 l/m 5,5 km/h (2 Bft) O-SO 120 0 min 0 lux 0 W/m
27.10.2015 02:15 9,0 C 5,8 C 83 % 1016,0 hPa 0,0 l/m 1,0 km/h (0 Bft) O-SO 120 0 min 0 lux 0 W/m
27.10.2015 02:20 8,9 C 5,8 C 83 % 1016,0 hPa 0,0 l/m 6,3 km/h (2 Bft) O-SO 115 0 min 0 lux 0 W/m
27.10.2015 02:25 8,9 C 5,8 C 83 % 1016,0 hPa 0,0 l/m 7,5 km/h (2 Bft) O-SO 105 0 min 0 lux 0 W/m
27.10.2015 02:30 8,9 C 5,8 C 83 % 1016,0 hPa 0,0 l/m 8,5 km/h (2 Bft) O-SO 110 0 min 0 lux 0 W/m
27.10.2015 02:35 8,9 C 5,9 C 83 % 1016,0 hPa 0,0 l/m 1,3 km/h (1 Bft) O-SO 115 0 min 0 lux 0 W/m
27.10.2015 02:39 8,9 C 5,9 C 83 % 1016,0 hPa 0,0 l/m 6,6 km/h (2 Bft) O-SO 115 0 min 0 lux 0 W/m
27.10.2015 02:45 9,0 C 5,8 C 83 % 1016,0 hPa 0,0 l/m 5,2 km/h (1 Bft) O-SO 115 0 min 0 lux 0 W/m
27.10.2015 02:50 8,9 C 5,8 C 83 % 1016,0 hPa 0,0 l/m 0,3 km/h (0 Bft) O-SO 115 0 min 0 lux 0 W/m
27.10.2015 02:55 8,8 C 5,6 C 83 % 1016,0 hPa 0,0 l/m 1,2 km/h (1 Bft) O-SO 115 0 min 0 lux 0 W/m
27.10.2015 03:00 8,8 C 5,6 C 83 % 1016,0 hPa 0,0 l/m 1,3 km/h (1 Bft) O-SO 115 0 min 0 lux 0 W/m
27.10.2015 03:04 8,8 C 5,6 C 83 % 1016,0 hPa 0,0 l/m 5,3 km/h (1 Bft) O-SO 115 0 min 0 lux 0 W/m
27.10.2015 03:10 8,9 C 5,6 C 83 % 1016,0 hPa 0,0 l/m 6,9 km/h (2 Bft) O-SO 115 0 min 0 lux 0 W/m
27.10.2015 03:15 8,9 C 5,6 C 83 % 1016,0 hPa 0,0 l/m 5,2 km/h (1 Bft) O-SO 115 0 min 0 lux 0 W/m
27.10.2015 03:20 8,9 C 5,6 C 83 % 1016,0 hPa 0,0 l/m 1,2 km/h (1 Bft) O-SO 115 0 min 0 lux 0 W/m
27.10.2015 03:25 8,8 C 5,5 C 83 % 1016,0 hPa 0,0 l/m 1,0 km/h (0 Bft) O-SO 115 0 min 0 lux 0 W/m
27.10.2015 03:30 8,9 C 5,4 C 83 % 1016,0 hPa 0,0 l/m 4,0 km/h (1 Bft) O-SO 115 0 min 0 lux 0 W/m
27.10.2015 03:35 8,8 C 5,5 C 83 % 1016,0 hPa 0,0 l/m 4,4 km/h (1 Bft) O-SO 115 0 min 0 lux 0 W/m
27.10.2015 03:39 8,8 C 5,4 C 83 % 1016,0 hPa 0,0 l/m 0,3 km/h (0 Bft) O-SO 115 0 min 0 lux 0 W/m
27.10.2015 03:45 8,8 C 5,4 C 83 % 1016,0 hPa 0,0 l/m 0,0 km/h (0 Bft) O-SO 115 0 min 0 lux 0 W/m
27.10.2015 03:50 8,6 C 5,4 C 83 % 1016,0 hPa 0,0 l/m 0,0 km/h (0 Bft) O-SO 115 0 min 0 lux 0 W/m
27.10.2015 03:55 8,6 C 5,2 C 83 % 1016,0 hPa 0,0 l/m 0,6 km/h (0 Bft) O-SO 115 0 min 0 lux 0 W/m
27.10.2015 04:00 8,5 C 5,2 C 83 % 1016,0 hPa 0,0 l/m 0,6 km/h (0 Bft) O-SO 115 0 min 0 lux 0 W/m
27.10.2015 04:05 8,7 C 5,3 C 84 % 1016,0 hPa 0,0 l/m 6,8 km/h (2 Bft) SO45 145 0 min 0 lux 0 W/m
27.10.2015 04:10 8,7 C 5,6 C 84 % 1016,0 hPa 0,0 l/m 1,1 km/h (1 Bft) SO 125 0 min 0 lux 0 W/m
27.10.2015 04:15 8,7 C 5,6 C 84 % 1016,0 hPa 0,0 l/m 1,1 km/h (1 Bft) SO 125 0 min 0 lux 0 W/m
27.10.2015 04:20 8,7 C 5,6 C 84 % 1016,0 hPa 0,0 l/m 0,4 km/h (0 Bft) SO 125 0 min 0 lux 0 W/m
27.10.2015 04:25 8,6 C 5,6 C 84 % 1016,0 hPa 0,0 l/m 6,5 km/h (2 Bft) SO 125 0 min 0 lux 0 W/m
27.10.2015 04:30 8,5 C 5,5 C 84 % 1016,0 hPa 0,0 l/m 0,1 km/h (0 Bft) SO 130 0 min 0 lux 0 W/m
27.10.2015 04:34 8,5 C 5,4 C 84 % 1015,0 hPa 0,0 l/m 0,3 km/h (0 Bft) SO 125 0 min 0 lux 0 W/m
27.10.2015 04:40 8,3 C 5,4 C 84 % 1015,0 hPa 0,0 l/m 1,3 km/h (1 Bft) SO 125 0 min 0 lux 0 W/m
27.10.2015 04:45 8,3 C 5,3 C 84 % 1015,0 hPa 0,0 l/m 1,5 km/h (1 Bft) SO22.5 125 0 min 0 lux 0 W/m
27.10.2015 04:50 8,3 C 5,3 C 85 % 1015,0 hPa 0,0 l/m 4,8 km/h (1 Bft) SO 135 0 min 0 lux 0 W/m
27.10.2015 04:55 8,4 C 5,4 C 85 % 1015,0 hPa 0,0 l/m 9,4 km/h (2 Bft) O-SO 115 0 min 0 lux 0 W/m
27.10.2015 05:00 8,4 C 5,5 C 85 % 1015,0 hPa 0,0 l/m 1,2 km/h (1 Bft) O-SO 105 0 min 0 lux 0 W/m
27.10.2015 05:05 8,4 C 5,5 C 85 % 1015,0 hPa 0,0 l/m 9,1 km/h (2 Bft) SO22.5 125 0 min 0 lux 0 W/m
27.10.2015 05:10 8,5 C 5,5 C 85 % 1015,0 hPa 0,0 l/m 8,3 km/h (2 Bft) SO22.5 125 0 min 0 lux 0 W/m
27.10.2015 05:15 8,5 C 5,5 C 85 % 1015,0 hPa 0,0 l/m 7,5 km/h (2 Bft) SO45 135 0 min 0 lux 0 W/m
27.10.2015 05:20 8,6 C 5,8 C 85 % 1015,0 hPa 0,0 l/m 1,2 km/h (1 Bft) SO 125 0 min 0 lux 0 W/m
27.10.2015 05:25 8,8 C 5,8 C 85 % 1015,0 hPa 0,0 l/m 11,9 km/h (2 Bft) SO22.5 125 0 min 0 lux 0 W/m
27.10.2015 05:29 8,9 C 5,9 C 85 % 1015,0 hPa 0,0 l/m 11,9 km/h (2 Bft) SO22.5 125 0 min 0 lux 0 W/m
27.10.2015 05:35 8,9 C 6,0 C 85 % 1015,0 hPa 0,0 l/m 11,3 km/h (2 Bft) SO 135 0 min 0 lux 0 W/m
27.10.2015 05:40 9,0 C 6,1 C 85 % 1015,0 hPa 0,0 l/m 9,3 km/h (2 Bft) S-SO22.5 150 0 min 0 lux 0 W/m
27.10.2015 05:45 9,1 C 6,2 C 85 % 1015,0 hPa 0,0 l/m 9,3 km/h (2 Bft) SO22.5 140 0 min 0 lux 0 W/m
27.10.2015 05:50 9,2 C 6,2 C 85 % 1015,0 hPa 0,0 l/m 10,9 km/h (2 Bft) S-SO45 165 0 min 0 lux 0 W/m
27.10.2015 05:55 9,2 C 6,5 C 85 % 1015,0 hPa 0,0 l/m 15,5 km/h (3 Bft) SO22.5 145 0 min 0 lux 0 W/m
27.10.2015 06:00 9,2 C 6,5 C 84 % 1015,0 hPa 0,0 l/m 13,6 km/h (3 Bft) S-SO22.5 150 0 min 0 lux 0 W/m
27.10.2015 06:05 9,3 C 6,5 C 84 % 1015,0 hPa 0,0 l/m 14,8 km/h (3 Bft) SO45 140 0 min 0 lux 0 W/m
27.10.2015 06:10 9,3 C 6,5 C 84 % 1015,0 hPa 0,0 l/m 12,5 km/h (2 Bft) SO22.5 145 0 min 0 lux 0 W/m
27.10.2015 06:15 9,4 C 6,6 C 84 % 1015,0 hPa 0,0 l/m 12,5 km/h (2 Bft) SO22.5 145 0 min 0 lux 0 W/m
27.10.2015 06:20 9,4 C 6,5 C 84 % 1015,0 hPa 0,0 l/m 9,0 km/h (2 Bft) SO67.5 140 0 min 0 lux 0 W/m
27.10.2015 06:25 9,4 C 6,5 C 84 % 1015,0 hPa 0,0 l/m 9,0 km/h (2 Bft) SO67.5 140 0 min 0 lux 0 W/m
27.10.2015 06:29 9,5 C 6,6 C 83 % 1015,0 hPa 0,0 l/m 14,7 km/h (3 Bft) SO22.5 145 0 min 0 lux 0 W/m
27.10.2015 06:35 9,4 C 6,6 C 83 % 1015,0 hPa 0,0 l/m 10,5 km/h (2 Bft) S-SO22.5 155 0 min 0 lux 0 W/m
27.10.2015 06:40 9,4 C 6,6 C 83 % 1015,0 hPa 0,0 l/m 14,9 km/h (3 Bft) SO22.5 140 0 min 0 lux 0 W/m
27.10.2015 06:45 9,5 C 6,6 C 83 % 1015,0 hPa 0,0 l/m 12,8 km/h (3 Bft) S-SO45 155 0 min 0 lux 0 W/m
27.10.2015 06:50 9,5 C 6,7 C 83 % 1015,0 hPa 0,0 l/m 12,1 km/h (2 Bft) S-SO45 160 0 min 0 lux 0 W/m
27.10.2015 06:55 9,5 C 6,7 C 83 % 1015,0 hPa 0,0 l/m 12,5 km/h (2 Bft) S-SO45 160 0 min 57 lux 0 W/m
27.10.2015 06:59 9,5 C 6,7 C 83 % 1015,0 hPa 0,0 l/m 14,2 km/h (3 Bft) S-SO22.5 150 0 min 57 lux 0 W/m
27.10.2015 07:05 9,5 C 6,7 C 83 % 1015,0 hPa 0,0 l/m 15,6 km/h (3 Bft) SO22.5 145 0 min 181 lux 0 W/m
27.10.2015 07:10 9,6 C 6,8 C 83 % 1015,0 hPa 0,0 l/m 18,3 km/h (3 Bft) SO67.5 145 0 min 181 lux 0 W/m
27.10.2015 07:15 9,6 C 6,7 C 83 % 1015,0 hPa 0,0 l/m 14,6 km/h (3 Bft) S-SO22.5 150 0 min 431 lux 0 W/m
27.10.2015 07:20 9,6 C 6,9 C 83 % 1015,0 hPa 0,0 l/m 14,6 km/h (3 Bft) S-SO22.5 150 0 min 677 lux 0 W/m
27.10.2015 07:24 9,7 C 6,9 C 83 % 1015,0 hPa 0,0 l/m 16,1 km/h (3 Bft) S-SO45 155 0 min 677 lux 5 W/m
27.10.2015 07:30 9,6 C 7,0 C 83 % 1015,0 hPa 0,0 l/m 18,2 km/h (3 Bft) S-SO45 150 0 min 677 lux 5 W/m
27.10.2015 07:35 9,6 C 7,2 C 83 % 1015,0 hPa 0,0 l/m 17,4 km/h (3 Bft) S-SO45 160 0 min 1,89 klux 13 W/m
27.10.2015 07:40 9,7 C 7,3 C 83 % 1015,0 hPa 0,0 l/m 18,5 km/h (3 Bft) S-SO45 155 0 min 2,69 klux 18 W/m
27.10.2015 07:45 9,7 C 7,3 C 82 % 1015,0 hPa 0,0 l/m 18,5 km/h (3 Bft) S-SO45 155 0 min 3,93 klux 27 W/m
27.10.2015 07:50 9,8 C 7,5 C 82 % 1015,0 hPa 0,0 l/m 18,5 km/h (3 Bft) S-SO45 155 0 min 4,70 klux 32 W/m
27.10.2015 07:55 9,7 C 7,5 C 82 % 1015,0 hPa 0,0 l/m 12,3 km/h (2 Bft) S-SO22.5 155 0 min 5,55 klux 38 W/m
27.10.2015 07:59 9,8 C 7,6 C 82 % 1016,0 hPa 0,0 l/m 15,3 km/h (3 Bft) S-SO22.5 155 0 min 5,11 klux 35 W/m
27.10.2015 08:05 9,8 C 7,7 C 82 % 1016,0 hPa 0,0 l/m 18,3 km/h (3 Bft) S-SO45 155 0 min 5,43 klux 37 W/m
27.10.2015 08:10 9,9 C 7,9 C 82 % 1016,0 hPa 0,0 l/m 18,3 km/h (3 Bft) S-SO45 155 0 min 6,16 klux 42 W/m
27.10.2015 08:15 9,9 C 7,9 C 82 % 1016,0 hPa 0,0 l/m 13,9 km/h (3 Bft) S-SO22.5 155 0 min 6,16 klux 42 W/m
27.10.2015 08:19 10,0 C 8,1 C 82 % 1016,0 hPa 0,0 l/m 13,9 km/h (3 Bft) S-SO22.5 155 0 min 7,39 klux 51 W/m
27.10.2015 08:25 10,1 C 8,3 C 82 % 1016,0 hPa 0,0 l/m 16,8 km/h (3 Bft) S-SO22.5 160 0 min 7,33 klux 50 W/m
27.10.2015 08:30 10,2 C 8,4 C 82 % 1016,0 hPa 0,0 l/m 19,5 km/h (3 Bft) S-SO22.5 155 0 min 8,37 klux 57 W/m
27.10.2015 08:35 10,2 C 8,6 C 82 % 1016,0 hPa 0,0 l/m 15,0 km/h (3 Bft) S-SO22.5 160 5 min 13,6 klux 93 W/m
27.10.2015 08:40 10,3 C 8,7 C 82 % 1016,0 hPa 0,0 l/m 14,4 km/h (3 Bft) S-SO22.5 155 0 min 8,96 klux 61 W/m
27.10.2015 08:45 10,4 C 9,0 C 81 % 1016,0 hPa 0,0 l/m 21,8 km/h (4 Bft) S-SO45 150 0 min 9,3 klux 63 W/m
27.10.2015 08:50 10,4 C 9,7 C 81 % 1016,0 hPa 0,0 l/m 12,8 km/h (3 Bft) S-SO22.5 150 5 min 24,8 klux 170 W/m
27.10.2015 08:54 10,6 C 11,5 C 81 % 1016,0 hPa 0,0 l/m 16,1 km/h (3 Bft) S-SO45 160 4 min 26,4 klux 181 W/m
27.10.2015 08:55 10,6 C 11,5 C 81 % 1016,0 hPa 0,0 l/m 16,1 km/h (3 Bft) S-SO45 160 1 min 26,4 klux 181 W/m
27.10.2015 09:00 10,8 C 12,6 C 81 % 1016,0 hPa 0,0 l/m 16,1 km/h (3 Bft) S-SO45 160 5 min 27,1 klux 185 W/m
27.10.2015 09:05 11,0 C 12,9 C 80 % 1016,0 hPa 0,0 l/m 23,7 km/h (4 Bft) S-SO45 155 5 min 29,3 klux 200 W/m
27.10.2015 09:10 11,2 C 13,1 C 79 % 1016,0 hPa 0,0 l/m 20,5 km/h (4 Bft) S-SO67.5 160 5 min 30,5 klux 209 W/m
27.10.2015 09:15 11,4 C 14,2 C 79 % 1016,0 hPa 0,0 l/m 19,6 km/h (3 Bft) S-SO45 160 5 min 30,8 klux 211 W/m
27.10.2015 09:20 11,5 C 15,0 C 79 % 1016,0 hPa 0,0 l/m 21,5 km/h (4 Bft) S-SO67.5 150 5 min 32,2 klux 220 W/m
27.10.2015 09:25 11,6 C 16,0 C 78 % 1016,0 hPa 0,0 l/m 19,5 km/h (3 Bft) S-SO45 160 5 min 33,2 klux 227 W/m
27.10.2015 09:30 11,6 C 17,1 C 78 % 1016,0 hPa 0,0 l/m 19,1 km/h (3 Bft) S-SO45 155 5 min 35,2 klux 241 W/m
27.10.2015 09:35 12,0 C 18,0 C 77 % 1016,0 hPa 0,0 l/m 17,5 km/h (3 Bft) S-SO45 150 5 min 35,8 klux 245 W/m
27.10.2015 09:40 12,1 C 18,3 C 77 % 1016,0 hPa 0,0 l/m 18,0 km/h (3 Bft) S-SO67.5 150 5 min 37,0 klux 253 W/m
27.10.2015 09:45 12,1 C 19,2 C 77 % 1016,0 hPa 0,0 l/m 15,0 km/h (3 Bft) S-SO22.5 155 5 min 37,3 klux 255 W/m
27.10.2015 09:50 12,4 C 20,1 C 76 % 1016,0 hPa 0,0 l/m 14,2 km/h (3 Bft) S-SO45 160 5 min 39,1 klux 267 W/m
27.10.2015 09:55 12,7 C 20,4 C 76 % 1016,0 hPa 0,0 l/m 14,6 km/h (3 Bft) S-SO67.5 160 5 min 40,3 klux 276 W/m
27.10.2015 09:59 12,9 C 21,2 C 76 % 1016,0 hPa 0,0 l/m 16,5 km/h (3 Bft) S-SO45 155 4 min 41,0 klux 280 W/m
27.10.2015 10:05 12,9 C 21,5 C 75 % 1016,0 hPa 0,0 l/m 18,6 km/h (3 Bft) S-SO45 155 6 min 42,1 klux 288 W/m
27.10.2015 10:10 13,2 C 21,5 C 74 % 1016,0 hPa 0,0 l/m 18,2 km/h (3 Bft) S-SO45 155 5 min 43,1 klux 295 W/m
27.10.2015 10:15 13,2 C 22,4 C 74 % 1016,0 hPa 0,0 l/m 14,9 km/h (3 Bft) S22.5 170 5 min 43,5 klux 298 W/m
27.10.2015 10:20 13,5 C 23,7 C 74 % 1016,0 hPa 0,0 l/m 15,9 km/h (3 Bft) S-SO67.5 150 5 min 44,3 klux 303 W/m
27.10.2015 10:25 13,9 C 25,0 C 73 % 1014,9 hPa 0,0 l/m 15,1 km/h (3 Bft) S-SO22.5 165 5 min 45,5 klux 311 W/m
27.10.2015 10:30 13,9 C 25,6 C 73 % 1014,9 hPa 0,0 l/m 18,1 km/h (3 Bft) S-SO45 155 5 min 45,9 klux 314 W/m
27.10.2015 10:35 14,1 C 26,7 C 72 % 1014,9 hPa 0,0 l/m 11,9 km/h (2 Bft) SO45 145 5 min 46,9 klux 321 W/m
27.10.2015 10:40 14,3 C 27,4 C 72 % 1014,9 hPa 0,0 l/m 14,3 km/h (3 Bft) S-SO45 150 5 min 47,7 klux 326 W/m
27.10.2015 10:45 14,4 C 27,8 C 71 % 1014,9 hPa 0,0 l/m 18,1 km/h (3 Bft) S-SO45 160 5 min 48,5 klux 332 W/m
27.10.2015 10:50 14,6 C 28,2 C 70 % 1014,9 hPa 0,0 l/m 15,5 km/h (3 Bft) S-SO45 165 5 min 49,1 klux 336 W/m
27.10.2015 10:54 14,6 C 28,5 C 70 % 1014,9 hPa 0,0 l/m 17,3 km/h (3 Bft) SO45 145 4 min 49,4 klux 338 W/m
27.10.2015 11:00 14,7 C 28,7 C 69 % 1014,9 hPa 0,0 l/m 16,8 km/h (3 Bft) S-SO45 155 6 min 50,0 klux 342 W/m
27.10.2015 11:05 15,0 C 29,4 C 69 % 1014,9 hPa 0,0 l/m 15,9 km/h (3 Bft) S-SO45 165 5 min 50,5 klux 345 W/m
27.10.2015 11:10 15,2 C 29,9 C 69 % 1014,9 hPa 0,0 l/m 18,3 km/h (3 Bft) S-SO45 160 5 min 51,3 klux 351 W/m
27.10.2015 11:15 15,4 C 30,7 C 68 % 1014,9 hPa 0,0 l/m 15,6 km/h (3 Bft) S-SO45 165 5 min 51,7 klux 354 W/m
27.10.2015 11:20 15,4 C 30,8 C 68 % 1014,9 hPa 0,0 l/m 15,6 km/h (3 Bft) S-SO45 165 5 min 52,0 klux 356 W/m
27.10.2015 11:25 15,5 C 31,2 C 68 % 1014,9 hPa 0,0 l/m 15,1 km/h (3 Bft) S-SO67.5 160 5 min 52,1 klux 356 W/m
27.10.2015 11:30 15,5 C 32,1 C 67 % 1014,9 hPa 0,0 l/m 13,2 km/h (3 Bft) S67.5 170 5 min 52,4 klux 358 W/m
27.10.2015 11:35 15,9 C 32,5 C 67 % 1014,9 hPa 0,0 l/m 14,0 km/h (3 Bft) S-SO22.5 165 5 min 52,6 klux 360 W/m
27.10.2015 11:40 15,9 C 32,6 C 67 % 1014,9 hPa 0,0 l/m 16,1 km/h (3 Bft) S-SO22.5 165 5 min 53,2 klux 364 W/m
27.10.2015 11:45 16,0 C 32,8 C 66 % 1014,9 hPa 0,0 l/m 15,9 km/h (3 Bft) S-SO45 165 5 min 53,6 klux 367 W/m
27.10.2015 11:49 16,0 C 32,7 C 66 % 1014,9 hPa 0,0 l/m 13,8 km/h (3 Bft) S-SO67.5 155 4 min 53,5 klux 366 W/m
27.10.2015 11:55 16,5 C 33,4 C 65 % 1014,9 hPa 0,0 l/m 10,2 km/h (2 Bft) S-SO45 165 6 min 53,5 klux 366 W/m
27.10.2015 12:00 16,4 C 33,5 C 64 % 1014,9 hPa 0,0 l/m 15,7 km/h (3 Bft) S45 170 5 min 53,9 klux 369 W/m
27.10.2015 12:05 16,4 C 33,4 C 65 % 1014,9 hPa 0,0 l/m 16,4 km/h (3 Bft) S45 170 5 min 53,8 klux 368 W/m
27.10.2015 12:10 16,4 C 33,4 C 65 % 1014,9 hPa 0,0 l/m 16,1 km/h (3 Bft) S22.5 170 5 min 53,5 klux 366 W/m
27.10.2015 12:15 16,4 C 33,5 C 65 % 1014,9 hPa 0,0 l/m 15,2 km/h (3 Bft) S45 170 5 min 53,5 klux 366 W/m
27.10.2015 12:20 16,9 C 33,9 C 64 % 1014,9 hPa 0,0 l/m 11,5 km/h (2 Bft) S45 175 5 min 53,5 klux 366 W/m
27.10.2015 12:25 16,9 C 33,7 C 64 % 1014,9 hPa 0,0 l/m 13,1 km/h (3 Bft) S-SO22.5 165 5 min 53,7 klux 367 W/m
27.10.2015 12:30 17,0 C 33,6 C 64 % 1014,9 hPa 0,0 l/m 13,4 km/h (3 Bft) S-SO45 155 5 min 53,6 klux 367 W/m
27.10.2015 12:35 17,0 C 33,0 C 64 % 1014,9 hPa 0,0 l/m 13,4 km/h (3 Bft) S-SO45 155 5 min 53,5 klux 366 W/m
27.10.2015 12:39 17,1 C 33,4 C 63 % 1014,9 hPa 0,0 l/m 12,0 km/h (2 Bft) S22.5 170 4 min 53,5 klux 366 W/m
27.10.2015 12:45 17,3 C 33,6 C 64 % 1014,9 hPa 0,0 l/m 14,4 km/h (3 Bft) S45 170 6 min 53,4 klux 365 W/m
27.10.2015 12:50 17,3 C 34,1 C 64 % 1014,9 hPa 0,0 l/m 13,3 km/h (3 Bft) S-SO67.5 165 5 min 53,0 klux 363 W/m
27.10.2015 12:55 17,5 C 34,2 C 62 % 1014,9 hPa 0,0 l/m 13,3 km/h (3 Bft) S22.5 170 5 min 52,8 klux 361 W/m
27.10.2015 13:00 17,6 C 34,4 C 62 % 1013,9 hPa 0,0 l/m 15,6 km/h (3 Bft) S22.5 170 5 min 52,7 klux 360 W/m
27.10.2015 13:05 17,6 C 34,2 C 62 % 1013,9 hPa 0,0 l/m 15,1 km/h (3 Bft) S-SO45 165 5 min 52,3 klux 358 W/m
27.10.2015 13:10 17,6 C 34,0 C 62 % 1013,9 hPa 0,0 l/m 12,9 km/h (3 Bft) S45 170 5 min 52,2 klux 357 W/m
27.10.2015 13:15 17,6 C 33,8 C 62 % 1013,9 hPa 0,0 l/m 11,6 km/h (2 Bft) S45 175 5 min 51,8 klux 354 W/m
27.10.2015 13:20 18,0 C 33,8 C 61 % 1013,9 hPa 0,0 l/m 11,3 km/h (2 Bft) S45 180 5 min 51,0 klux 349 W/m
27.10.2015 13:25 18,0 C 33,3 C 61 % 1013,9 hPa 0,0 l/m 14,5 km/h (3 Bft) S22.5 180 5 min 50,7 klux 347 W/m
27.10.2015 13:30 18,0 C 33,4 C 61 % 1013,9 hPa 0,0 l/m 12,6 km/h (3 Bft) S22.5 170 5 min 50,2 klux 343 W/m
27.10.2015 13:34 18,0 C 33,3 C 61 % 1013,9 hPa 0,0 l/m 14,2 km/h (3 Bft) S-SO45 165 4 min 49,3 klux 337 W/m
27.10.2015 13:40 18,0 C 33,3 C 61 % 1013,9 hPa 0,0 l/m 13,5 km/h (3 Bft) S22.5 185 6 min 49,3 klux 337 W/m
27.10.2015 13:45 18,0 C 33,5 C 61 % 1013,9 hPa 0,0 l/m 13,8 km/h (3 Bft) S22.5 175 5 min 48,5 klux 332 W/m
27.10.2015 13:50 18,3 C 33,5 C 61 % 1013,9 hPa 0,0 l/m 12,0 km/h (2 Bft) S-SO22.5 155 5 min 47,7 klux 326 W/m
27.10.2015 13:55 18,3 C 33,1 C 61 % 1013,9 hPa 0,0 l/m 13,4 km/h (3 Bft) S-SO22.5 155 5 min 47,2 klux 323 W/m
27.10.2015 14:00 18,3 C 32,8 C 61 % 1013,9 hPa 0,0 l/m 12,5 km/h (2 Bft) S-SO45 165 5 min 46,7 klux 319 W/m
27.10.2015 14:05 18,4 C 32,7 C 61 % 1013,9 hPa 0,0 l/m 11,1 km/h (2 Bft) S45 175 5 min 46,6 klux 319 W/m
27.10.2015 14:09 18,5 C 32,6 C 61 % 1013,9 hPa 0,0 l/m 12,0 km/h (2 Bft) S22.5 170 4 min 45,8 klux 313 W/m
27.10.2015 14:15 18,5 C 32,4 C 61 % 1013,9 hPa 0,0 l/m 11,3 km/h (2 Bft) S22.5 170 6 min 45,0 klux 308 W/m
27.10.2015 14:20 18,7 C 32,4 C 60 % 1013,9 hPa 0,0 l/m 13,6 km/h (3 Bft) S-SO22.5 160 5 min 44,4 klux 304 W/m
27.10.2015 14:25 18,7 C 32,2 C 60 % 1013,9 hPa 0,0 l/m 12,2 km/h (2 Bft) SO22.5 125 5 min 43,4 klux 297 W/m
27.10.2015 14:30 18,8 C 31,9 C 60 % 1013,9 hPa 0,0 l/m 13,6 km/h (3 Bft) SO45 145 5 min 42,7 klux 292 W/m
27.10.2015 14:35 18,8 C 31,6 C 59 % 1013,9 hPa 0,0 l/m 15,8 km/h (3 Bft) S-SO45 165 5 min 41,3 klux 282 W/m
27.10.2015 14:40 18,8 C 31,5 C 59 % 1013,9 hPa 0,0 l/m 10,5 km/h (2 Bft) S-SO22.5 160 5 min 40,6 klux 278 W/m
27.10.2015 14:44 18,8 C 31,3 C 59 % 1013,9 hPa 0,0 l/m 7,2 km/h (2 Bft) SO45 140 4 min 39,5 klux 270 W/m
27.10.2015 14:50 18,5 C 30,9 C 60 % 1013,9 hPa 0,0 l/m 0,7 km/h (0 Bft) O-SO22.5 110 6 min 38,3 klux 262 W/m
27.10.2015 14:55 18,5 C 30,9 C 60 % 1013,9 hPa 0,0 l/m 10,3 km/h (2 Bft) S-SO45 165 5 min 37,9 klux 259 W/m
27.10.2015 15:00 18,2 C 30,1 C 61 % 1013,9 hPa 0,0 l/m 13,5 km/h (3 Bft) S-SO45 160 5 min 37,0 klux 253 W/m
27.10.2015 15:05 18,1 C 29,9 C 61 % 1013,9 hPa 0,0 l/m 5,3 km/h (1 Bft) SO22.5 145 5 min 35,8 klux 245 W/m
27.10.2015 15:09 18,0 C 29,4 C 61 % 1013,9 hPa 0,0 l/m 11,1 km/h (2 Bft) SO45 130 4 min 34,6 klux 237 W/m
27.10.2015 15:15 18,0 C 29,0 C 62 % 1013,9 hPa 0,0 l/m 10,7 km/h (2 Bft) S-SO22.5 155 6 min 33,8 klux 231 W/m
27.10.2015 15:20 18,0 C 28,2 C 62 % 1013,9 hPa 0,0 l/m 9,4 km/h (2 Bft) S-SO22.5 160 5 min 33,1 klux 226 W/m
27.10.2015 15:25 18,0 C 27,6 C 62 % 1012,9 hPa 0,0 l/m 11,8 km/h (2 Bft) S-SO22.5 165 5 min 31,7 klux 217 W/m
27.10.2015 15:30 17,7 C 27,3 C 62 % 1012,9 hPa 0,0 l/m 10,8 km/h (2 Bft) S22.5 170 5 min 30,2 klux 207 W/m
27.10.2015 15:35 17,7 C 26,6 C 62 % 1012,9 hPa 0,0 l/m 10,5 km/h (2 Bft) S22.5 170 5 min 28,4 klux 194 W/m
27.10.2015 15:39 17,6 C 25,9 C 62 % 1012,9 hPa 0,0 l/m 9,4 km/h (2 Bft) S-SO22.5 160 4 min 27,6 klux 189 W/m
27.10.2015 15:45 17,6 C 25,6 C 62 % 1012,9 hPa 0,0 l/m 9,2 km/h (2 Bft) S-SO22.5 155 6 min 26,4 klux 181 W/m
27.10.2015 15:50 17,5 C 25,0 C 63 % 1012,9 hPa 0,0 l/m 8,9 km/h (2 Bft) SO22.5 145 5 min 25,6 klux 175 W/m
27.10.2015 15:55 17,4 C 24,4 C 63 % 1012,9 hPa 0,0 l/m 10,4 km/h (2 Bft) S 175 5 min 24,2 klux 166 W/m
27.10.2015 16:00 17,4 C 24,2 C 63 % 1012,9 hPa 0,0 l/m 8,7 km/h (2 Bft) S-SO 160 5 min 22,7 klux 155 W/m
27.10.2015 16:04 17,2 C 23,5 C 64 % 1012,9 hPa 0,0 l/m 6,5 km/h (2 Bft) S-SO 160 4 min 20,9 klux 143 W/m
27.10.2015 16:10 17,2 C 22,8 C 64 % 1012,9 hPa 0,0 l/m 5,4 km/h (2 Bft) S-SO 160 6 min 20,9 klux 143 W/m
27.10.2015 16:15 17,0 C 22,3 C 65 % 1012,9 hPa 0,0 l/m 7,2 km/h (2 Bft) SO 140 5 min 17,1 klux 117 W/m
27.10.2015 16:20 17,0 C 21,9 C 65 % 1012,9 hPa 0,0 l/m 1,3 km/h (1 Bft) SO 145 5 min 16,3 klux 111 W/m
27.10.2015 16:25 17,0 C 21,4 C 65 % 1012,9 hPa 0,0 l/m 0,0 km/h (0 Bft) SO 145 5 min 9,8 klux 67 W/m
27.10.2015 16:30 17,0 C 19,5 C 65 % 1012,9 hPa 0,0 l/m 0,0 km/h (0 Bft) SO 145 0 min 5,20 klux 36 W/m
27.10.2015 16:35 17,0 C 18,4 C 65 % 1012,9 hPa 0,0 l/m 0,0 km/h (0 Bft) SO 145 5 min 6,99 klux 48 W/m
27.10.2015 16:40 15,9 C 17,7 C 68 % 1012,9 hPa 0,0 l/m 0,0 km/h (0 Bft) SO 145 5 min 10,0 klux 68 W/m
27.10.2015 16:45 15,9 C 17,0 C 68 % 1012,9 hPa 0,0 l/m 0,3 km/h (0 Bft) SO 145 5 min 8,40 klux 57 W/m
27.10.2015 16:50 15,7 C 17,0 C 69 % 1012,9 hPa 0,0 l/m 4,8 km/h (1 Bft) S-SO 150 5 min 6,80 klux 47 W/m
27.10.2015 16:55 15,5 C 15,1 C 69 % 1012,9 hPa 0,0 l/m 2,3 km/h (1 Bft) S-SO 165 0 min 2,00 klux 14 W/m
27.10.2015 17:00 15,5 C 14,0 C 69 % 1012,9 hPa 0,0 l/m 1,2 km/h (1 Bft) S-SO 165 0 min 1,58 klux 11 W/m
27.10.2015 17:05 15,2 C 12,9 C 69 % 1012,9 hPa 0,0 l/m 0,0 km/h (0 Bft) S-SO 165 5 min 1,58 klux 11 W/m
27.10.2015 17:10 15,0 C 12,5 C 69 % 1012,9 hPa 0,0 l/m 0,0 km/h (0 Bft) S-SO 165 0 min 979 lux 7 W/m
27.10.2015 17:15 14,9 C 11,9 C 69 % 1012,9 hPa 0,0 l/m 5,6 km/h (2 Bft) S-SO 165 0 min 979 lux 0 W/m
27.10.2015 17:20 14,6 C 11,2 C 70 % 1012,9 hPa 0,0 l/m 4,4 km/h (1 Bft) S-SO 165 0 min 979 lux 0 W/m
27.10.2015 17:25 14,4 C 11,0 C 70 % 1012,9 hPa 0,0 l/m 2,2 km/h (1 Bft) S-SO 165 0 min 195 lux 0 W/m
27.10.2015 17:29 14,0 C 10,5 C 71 % 1012,9 hPa 0,0 l/m 5,2 km/h (1 Bft) S-SO 165 0 min 195 lux 0 W/m
27.10.2015 17:35 14,0 C 10,2 C 72 % 1012,9 hPa 0,0 l/m 6,0 km/h (2 Bft) S-SO 165 0 min 195 lux 0 W/m
27.10.2015 17:40 13,9 C 10,2 C 72 % 1012,9 hPa 0,0 l/m 6,9 km/h (2 Bft) S 170 0 min 195 lux 0 W/m
27.10.2015 17:45 13,9 C 10,0 C 72 % 1012,9 hPa 0,0 l/m 7,6 km/h (2 Bft) S 175 0 min 13 lux 0 W/m
27.10.2015 17:50 13,9 C 9,9 C 72 % 1012,9 hPa 0,0 l/m 6,8 km/h (2 Bft) S 170 0 min 13 lux 0 W/m
27.10.2015 17:55 13,8 C 9,8 C 73 % 1012,9 hPa 0,0 l/m 8,7 km/h (2 Bft) S22.5 175 0 min 5 lux 0 W/m
27.10.2015 18:00 13,8 C 9,9 C 73 % 1012,9 hPa 0,0 l/m 7,1 km/h (2 Bft) S-SO22.5 165 0 min 2 lux 0 W/m
27.10.2015 18:05 13,7 C 9,8 C 73 % 1012,9 hPa 0,0 l/m 6,7 km/h (2 Bft) S-SO 160 0 min 0 lux 0 W/m
27.10.2015 18:10 13,4 C 9,6 C 73 % 1012,9 hPa 0,0 l/m 0,4 km/h (0 Bft) SO22.5 145 0 min 0 lux 0 W/m
27.10.2015 18:15 13,2 C 9,6 C 73 % 1012,9 hPa 0,0 l/m 0,3 km/h (0 Bft) O-SO 115 0 min 0 lux 0 W/m
27.10.2015 18:20 13,2 C 9,5 C 73 % 1012,9 hPa 0,0 l/m 0,9 km/h (0 Bft) O-SO 115 0 min 0 lux 0 W/m
27.10.2015 18:25 12,9 C 9,7 C 74 % 1012,9 hPa 0,0 l/m 0,9 km/h (0 Bft) O-SO 120 0 min 0 lux 0 W/m
27.10.2015 18:29 12,8 C 9,7 C 75 % 1012,9 hPa 0,0 l/m 0,7 km/h (0 Bft) SO 125 0 min 0 lux 0 W/m
27.10.2015 18:35 12,8 C 9,8 C 76 % 1012,9 hPa 0,0 l/m 9,6 km/h (2 Bft) S-SO22.5 155 0 min 0 lux 0 W/m
27.10.2015 18:40 12,9 C 10,1 C 76 % 1012,9 hPa 0,0 l/m 11,5 km/h (2 Bft) S-SO22.5 150 0 min 0 lux 0 W/m
27.10.2015 18:45 13,0 C 10,3 C 76 % 1012,9 hPa 0,0 l/m 10,3 km/h (2 Bft) S-SO22.5 155 0 min 0 lux 0 W/m
27.10.2015 18:50 13,0 C 10,3 C 75 % 1012,9 hPa 0,0 l/m 14,2 km/h (3 Bft) S-SO22.5 155 0 min 0 lux 0 W/m
27.10.2015 18:55 13,1 C 10,4 C 75 % 1012,9 hPa 0,0 l/m 17,3 km/h (3 Bft) S-SO22.5 150 0 min 0 lux 0 W/m
27.10.2015 18:59 13,2 C 10,3 C 75 % 1012,9 hPa 0,0 l/m 14,2 km/h (3 Bft) SO45 140 0 min 0 lux 0 W/m
27.10.2015 19:05 13,2 C 10,2 C 74 % 1012,9 hPa 0,0 l/m 15,5 km/h (3 Bft) SO45 140 0 min 0 lux 0 W/m
27.10.2015 19:10 13,2 C 10,1 C 74 % 1012,9 hPa 0,0 l/m 14,6 km/h (3 Bft) S-SO22.5 160 0 min 0 lux 0 W/m
27.10.2015 19:15 13,2 C 9,8 C 74 % 1012,9 hPa 0,0 l/m 11,1 km/h (2 Bft) SO45 145 0 min 0 lux 0 W/m
27.10.2015 19:20 13,0 C 9,8 C 75 % 1012,9 hPa 0,0 l/m 15,6 km/h (3 Bft) SO22.5 130 0 min 0 lux 0 W/m
27.10.2015 19:25 12,9 C 9,7 C 75 % 1012,9 hPa 0,0 l/m 8,1 km/h (2 Bft) SO22.5 130 0 min 0 lux 0 W/m
27.10.2015 19:30 12,8 C 9,5 C 75 % 1012,9 hPa 0,0 l/m 8,1 km/h (2 Bft) SO22.5 130 0 min 0 lux 0 W/m
27.10.2015 19:35 12,6 C 9,3 C 75 % 1013,0 hPa 0,0 l/m 10,8 km/h (2 Bft) SO22.5 140 0 min 0 lux 0 W/m
27.10.2015 19:40 12,4 C 9,2 C 76 % 1013,0 hPa 0,0 l/m 9,0 km/h (2 Bft) S-SO22.5 150 0 min 0 lux 0 W/m
27.10.2015 19:45 12,4 C 9,1 C 76 % 1013,0 hPa 0,0 l/m 5,8 km/h (2 Bft) SO22.5 135 0 min 0 lux 0 W/m
27.10.2015 19:50 12,2 C 8,9 C 76 % 1013,0 hPa 0,0 l/m 5,8 km/h (2 Bft) SO22.5 135 0 min 0 lux 0 W/m
27.10.2015 19:54 12,2 C 9,0 C 77 % 1013,0 hPa 0,0 l/m 6,6 km/h (2 Bft) O-SO22.5 115 0 min 0 lux 0 W/m
27.10.2015 20:00 12,1 C 8,9 C 77 % 1013,0 hPa 0,0 l/m 9,8 km/h (2 Bft) SO22.5 125 0 min 0 lux 0 W/m
27.10.2015 20:05 12,1 C 9,0 C 77 % 1013,0 hPa 0,0 l/m 13,6 km/h (3 Bft) S-SO22.5 150 0 min 0 lux 0 W/m
27.10.2015 20:10 12,2 C 9,0 C 77 % 1013,0 hPa 0,0 l/m 14,1 km/h (3 Bft) S-SO22.5 150 0 min 0 lux 0 W/m
27.10.2015 20:14 12,2 C 9,0 C 77 % 1013,0 hPa 0,0 l/m 14,1 km/h (3 Bft) S-SO22.5 150 0 min 0 lux 0 W/m
27.10.2015 20:20 12,2 C 8,8 C 77 % 1013,0 hPa 0,0 l/m 15,3 km/h (3 Bft) S-SO45 160 0 min 0 lux 0 W/m
27.10.2015 20:25 12,1 C 8,7 C 77 % 1013,0 hPa 0,0 l/m 15,8 km/h (3 Bft) S-SO22.5 165 0 min 0 lux 0 W/m
27.10.2015 20:30 12,1 C 8,7 C 77 % 1013,0 hPa 0,0 l/m 15,2 km/h (3 Bft) S22.5 170 0 min 0 lux 0 W/m
27.10.2015 20:35 12,0 C 8,6 C 77 % 1013,0 hPa 0,0 l/m 9,8 km/h (2 Bft) S-SO22.5 165 0 min 0 lux 0 W/m
27.10.2015 20:40 12,0 C 8,6 C 77 % 1013,0 hPa 0,0 l/m 9,8 km/h (2 Bft) S-SO22.5 165 0 min 0 lux 0 W/m
27.10.2015 20:45 11,9 C 8,6 C 77 % 1013,0 hPa 0,0 l/m 11,6 km/h (2 Bft) S-SO22.5 160 0 min 0 lux 0 W/m
27.10.2015 20:50 11,8 C 8,5 C 77 % 1013,0 hPa 0,0 l/m 12,7 km/h (3 Bft) S22.5 170 0 min 0 lux 0 W/m
27.10.2015 20:55 11,7 C 8,4 C 77 % 1013,0 hPa 0,0 l/m 11,1 km/h (2 Bft) S-SO22.5 165 0 min 0 lux 0 W/m
27.10.2015 21:00 11,6 C 8,2 C 78 % 1013,0 hPa 0,0 l/m 9,1 km/h (2 Bft) S22.5 180 0 min 0 lux 0 W/m
27.10.2015 21:05 11,6 C 8,1 C 78 % 1013,0 hPa 0,0 l/m 10,0 km/h (2 Bft) S-SO22.5 160 0 min 0 lux 0 W/m
27.10.2015 21:09 11,5 C 8,1 C 78 % 1013,0 hPa 0,0 l/m 11,2 km/h (2 Bft) S-SO22.5 165 0 min 0 lux 0 W/m
27.10.2015 21:15 11,4 C 8,2 C 79 % 1013,0 hPa 0,0 l/m 14,4 km/h (3 Bft) S-SO22.5 160 0 min 0 lux 0 W/m
27.10.2015 21:20 11,3 C 8,1 C 79 % 1013,0 hPa 0,0 l/m 10,5 km/h (2 Bft) S-SO22.5 155 0 min 0 lux 0 W/m
27.10.2015 21:25 11,3 C 8,1 C 79 % 1013,0 hPa 0,0 l/m 10,5 km/h (2 Bft) S-SO22.5 155 0 min 0 lux 0 W/m
27.10.2015 21:30 11,3 C 8,1 C 79 % 1013,0 hPa 0,0 l/m 15,6 km/h (3 Bft) S-SO22.5 160 0 min 0 lux 0 W/m
27.10.2015 21:35 11,1 C 8,0 C 79 % 1013,0 hPa 0,0 l/m 15,6 km/h (3 Bft) S-SO22.5 160 0 min 0 lux 0 W/m
27.10.2015 21:39 11,1 C 8,0 C 80 % 1013,0 hPa 0,0 l/m 14,2 km/h (3 Bft) S-SO22.5 160 0 min 0 lux 0 W/m
27.10.2015 21:45 11,1 C 8,0 C 80 % 1013,0 hPa 0,0 l/m 13,6 km/h (3 Bft) S-SO22.5 160 0 min 0 lux 0 W/m
27.10.2015 21:50 11,0 C 7,9 C 80 % 1013,0 hPa 0,0 l/m 12,8 km/h (3 Bft) S-SO22.5 165 0 min 0 lux 0 W/m
27.10.2015 21:55 10,9 C 7,8 C 80 % 1013,0 hPa 0,0 l/m 13,5 km/h (3 Bft) S-SO22.5 155 0 min 0 lux 0 W/m
27.10.2015 22:00 10,8 C 7,7 C 80 % 1013,0 hPa 0,0 l/m 11,0 km/h (2 Bft) S-SO22.5 160 0 min 0 lux 0 W/m
27.10.2015 22:05 10,8 C 7,7 C 80 % 1013,0 hPa 0,0 l/m 12,3 km/h (2 Bft) S-SO22.5 150 0 min 0 lux 0 W/m
27.10.2015 22:10 10,8 C 7,6 C 80 % 1013,0 hPa 0,0 l/m 8,3 km/h (2 Bft) S-SO22.5 160 0 min 0 lux 0 W/m
27.10.2015 22:15 10,8 C 7,5 C 80 % 1013,0 hPa 0,0 l/m 8,3 km/h (2 Bft) S-SO22.5 160 0 min 0 lux 0 W/m
27.10.2015 22:20 10,6 C 7,5 C 80 % 1013,0 hPa 0,0 l/m 12,4 km/h (2 Bft) S-SO22.5 160 0 min 0 lux 0 W/m
27.10.2015 22:25 10,6 C 7,5 C 80 % 1013,0 hPa 0,0 l/m 14,6 km/h (3 Bft) S-SO22.5 160 0 min 0 lux 0 W/m
27.10.2015 22:29 10,6 C 7,5 C 80 % 1013,0 hPa 0,0 l/m 13,5 km/h (3 Bft) S22.5 170 0 min 0 lux 0 W/m
27.10.2015 22:35 10,6 C 7,6 C 80 % 1013,0 hPa 0,0 l/m 12,0 km/h (2 Bft) S-SO22.5 165 0 min 0 lux 0 W/m
27.10.2015 22:40 10,5 C 7,6 C 81 % 1013,0 hPa 0,0 l/m 10,6 km/h (2 Bft) S-SO22.5 160 0 min 0 lux 0 W/m
27.10.2015 22:45 10,5 C 7,6 C 81 % 1013,0 hPa 0,0 l/m 13,8 km/h (3 Bft) S-SO22.5 165 0 min 0 lux 0 W/m
27.10.2015 22:50 10,5 C 7,7 C 81 % 1013,0 hPa 0,0 l/m 14,8 km/h (3 Bft) S-SO22.5 155 0 min 0 lux 0 W/m
27.10.2015 22:55 10,5 C 7,7 C 81 % 1013,0 hPa 0,0 l/m 14,8 km/h (3 Bft) S-SO22.5 155 0 min 0 lux 0 W/m
27.10.2015 22:59 10,4 C 7,6 C 81 % 1013,0 hPa 0,0 l/m 11,9 km/h (2 Bft) S-SO22.5 150 0 min 0 lux 0 W/m
27.10.2015 23:05 10,4 C 7,5 C 81 % 1013,0 hPa 0,0 l/m 15,0 km/h (3 Bft) S-SO22.5 165 0 min 0 lux 0 W/m
27.10.2015 23:10 10,4 C 7,5 C 81 % 1013,0 hPa 0,0 l/m 13,3 km/h (3 Bft) S-SO22.5 155 0 min 0 lux 0 W/m
27.10.2015 23:15 10,2 C 7,4 C 81 % 1013,0 hPa 0,0 l/m 15,6 km/h (3 Bft) S-SO45 160 0 min 0 lux 0 W/m
27.10.2015 23:20 10,2 C 7,5 C 81 % 1013,0 hPa 0,0 l/m 15,6 km/h (3 Bft) S-SO45 160 0 min 0 lux 0 W/m
27.10.2015 23:24 10,1 C 7,5 C 81 % 1013,0 hPa 0,0 l/m 18,0 km/h (3 Bft) S-SO22.5 150 0 min 0 lux 0 W/m
27.10.2015 23:30 10,1 C 7,4 C 81 % 1013,0 hPa 0,0 l/m 16,8 km/h (3 Bft) S-SO22.5 155 0 min 0 lux 0 W/m
27.10.2015 23:35 10,0 C 7,3 C 82 % 1013,0 hPa 0,0 l/m 13,5 km/h (3 Bft) S-SO45 160 0 min 0 lux 0 W/m
27.10.2015 23:40 9,9 C 7,2 C 82 % 1013,0 hPa 0,0 l/m 15,0 km/h (3 Bft) S-SO45 165 0 min 0 lux 0 W/m
27.10.2015 23:45 9,9 C 7,2 C 82 % 1013,0 hPa 0,0 l/m 16,1 km/h (3 Bft) S-SO22.5 150 0 min 0 lux 0 W/m
27.10.2015 23:50 9,9 C 7,2 C 82 % 1013,0 hPa 0,0 l/m 16,1 km/h (3 Bft) S-SO22.5 150 0 min 0 lux 0 W/m
27.10.2015 23:54 9,8 C 7,2 C 82 % 1013,0 hPa 0,0 l/m 15,0 km/h (3 Bft) S-SO22.5 150 0 min 0 lux 0 W/m
_ Min-Zeit 00:50 00:44 14:35 15:25 - 00:30 - - - - -
Minimum _ 8,0 C 5,0 C 59 % 1012,9 hPa - 0,0 km/h (0 Bft) - - - - -
_ Max-Zeit 14:30 13:00 04:50 00:50 00:00 09:05 - - 10:05 12:00 12:00
Maximum _ 18,8 C 34,4 C 85 % 1016,0 hPa 0,0 l/m 23,7 km/h
S-SO (4 Bft)
- - 6 min 53,9 klux 369 W/m
Durchschnitt _ 12,3 C 14,1 C 76 % 1014,4 hPa #0,0 l/m 10,0 km/h (2 Bft) S-SO - #8:10 h 13,9 klux 232 W/m